This is the latest recevied weather packets stored in our database for station/object KM8V-8. If no packets are shown the sender has not sent any weather packets the latest 10 day(s).
| Time | Temp. | Humidity | Pressure | Rain* | Wind** | Luminosity | Snow |
|---|---|---|---|---|---|---|---|
| 1777742124 | 7.22° C | 63% | 1017.1 hPa | 0 mm | - | 697 W/m² | - |
| 1777741824 | 7.22° C | 66% | 1017.2 hPa | 0 mm | - | 747 W/m² | - |
| 1777741518 | 6.67° C | 65% | 1017.2 hPa | 0 mm | - | 948 W/m² | - |
| 1777741224 | 6.67° C | 65% | 1017.3 hPa | 0 mm | - | 865 W/m² | - |
| 1777740924 | 6.67° C | 66% | 1017.3 hPa | 0 mm | - | 492 W/m² | - |
| 1777740624 | 6.67° C | 66% | 1017.4 hPa | 0 mm | - | 628 W/m² | - |
| 1777740325 | 6.67° C | 67% | 1017.4 hPa | 0 mm | - | 861 W/m² | - |
| 1777740019 | 6.11° C | 67% | 1017.5 hPa | 0 mm | - | 776 W/m² | - |
| 1777739726 | 6.11° C | 68% | 1017.5 hPa | 0 mm | - | 723 W/m² | - |
| 1777739425 | 6.11° C | 70% | 1017.6 hPa | 0 mm | - | 827 W/m² | - |
| 1777739125 | 5.56° C | 71% | 1017.6 hPa | 0 mm | - | 530 W/m² | - |
| 1777738825 | 5.56° C | 71% | 1017.6 hPa | 0 mm | - | 396 W/m² | - |
| 1777738525 | 5.56° C | 69% | 1017.6 hPa | 0 mm | - | 540 W/m² | - |
| 1777738219 | 5.56° C | 72% | 1017.7 hPa | 0 mm | - | 686 W/m² | - |
| 1777737925 | 5° C | 73% | 1017.7 hPa | 0 mm | - | 394 W/m² | - |
| 1777737625 | 5° C | 74% | 1017.7 hPa | 0 mm | - | 432 W/m² | - |
| 1777737325 | 5° C | 77% | 1017.7 hPa | 0 mm | - | 421 W/m² | - |
| 1777737025 | 4.44° C | 76% | 1017.7 hPa | 0 mm | - | 374 W/m² | - |
| 1777736726 | 4.44° C | 79% | 1017.7 hPa | 0 mm | - | 368 W/m² | - |
| 1777736426 | 4.44° C | 79% | 1017.6 hPa | 0 mm | - | 364 W/m² | - |
| 1777736154 | 4.44° C | 81% | 1017.7 hPa | 0 mm | - | 320 W/m² | - |
| 1777735854 | 4.44° C | 81% | 1017.7 hPa | 0 mm | - | 304 W/m² | - |
| 1777735554 | 4.44° C | 81% | 1017.7 hPa | 0 mm | - | 273 W/m² | - |
| 1777735254 | 4.44° C | 83% | 1017.6 hPa | 0 mm | - | 287 W/m² | - |
| 1777734954 | 3.89° C | 83% | 1017.6 hPa | 0 mm | - | 314 W/m² | - |
* Rain latest hour (hover to see other rain measurements)
** Current wind speed in m/s (hover to see current wind gust speed)